DW6276 Weather Reports


time (UTC)temp
C
wind
direction
speed
KPH
gust
KPH
rain 1hr
cm
rain 24hr
cm
rain mn
cm
humidity
%
barometer
mb
20260906183516 23 135 8.0 14.5 0.00 0.00 0.00 84 1018.2
20260906182515 23 158 6.4 11.3 0.00 0.00 0.00 84 1018.2
20260906181516 23 180 8.0 11.3 0.00 0.00 0.00 84 1018.4
20260906180515 23 180 4.8 11.3 0.00 0.00 0.00 85 1018.5
20260906175516 23 180 8.0 14.5 0.00 0.00 0.00 84 1018.7
20260906174516 23 158 9.7 14.5 0.00 0.00 0.00 84 1018.7
20260906173535 23 158 8.0 11.3 0.00 0.00 0.00 85 1018.7
20260906172515 23 158 8.0 12.9 0.00 0.00 0.00 84 1018.6
20260906171536 23 158 9.7 16.1 0.00 0.00 0.00 84 1018.6
20260906170515 23 113 9.7 19.3 0.00 0.00 0.00 83 1018.6
20260906165515 24 135 9.7 17.7 0.00 0.00 0.00 84 1018.8
20260906164515 23 135 12.9 19.3 0.00 0.00 0.00 84 1018.7
20260906163515 23 135 9.7 20.9 0.00 0.00 0.00 85 1018.9
20260906162515 23 135 8.0 12.9 0.00 0.00 0.00 86 1019.1
20260906161515 22 158 9.7 17.7 0.00 0.00 0.00 86 1019.2
20260906160515 22 158 8.0 12.9 0.00 0.00 0.00 87 1019.1
20260906155515 22 135 6.4 11.3 0.00 0.00 0.00 88 1019.1
20260906154515 22 135 8.0 12.9 0.00 0.00 0.00 88 1019.1
20260906153515 22 158 6.4 11.3 0.00 0.00 0.00 89 1018.8
20260906152515 22 135 8.0 11.3 0.00 0.00 0.00 88 1018.7
20260906151515 22 158 8.0 12.9 0.00 0.00 0.00 88 1018.8
20260906150515 22 158 8.0 12.9 0.00 0.00 0.00 89 1019.0
20260906145515 21 158 9.7 17.7 0.00 0.00 0.00 89 1019.0
20260906144515 21 158 6.4 11.3 0.00 0.00 0.00 89 1018.9
20260906143515 21 158 6.4 11.3 0.00 0.00 0.00 90 1018.7
20260906142515 21 158 6.4 14.5 0.00 0.00 0.00 90 1018.7
20260906141515 21 180 8.0 14.5 0.00 0.00 0.00 89 1018.7
20260906140535 21 158 9.7 16.1 0.00 0.00 0.00 89 1018.6
20260906135517 21 135 9.7 12.9 0.00 0.00 0.00 90 1018.7
20260906134517 21 135 9.7 14.5 0.00 0.00 0.00 90 1018.5
20260906133517 21 158 8.0 14.5 0.00 0.00 0.00 91 1018.3
20260906132517 21 180 6.4 12.9 0.00 0.00 0.00 91 1018.4
20260906131517 21 158 4.8 11.3 0.00 0.00 0.00 92 1018.5
20260906130517 20 0 3.2 8.0 0.00 0.00 0.00 92 1018.4
20260906125517 20 158 4.8 9.7 0.00 0.00 0.00 93 1018.3
20260906124517 20 135 4.8 11.3 0.00 0.00 0.00 93 1018.2
20260906123517 20 0 3.2 4.8 0.00 0.00 0.00 93 1018.2
20260906122517 19 135 3.2 4.8 0.00 0.00 0.00 93 1018.1
20260906121517 19 158 3.2 8.0 0.00 0.00 0.00 93 1018.0
20260906120517 19 135 1.6 4.8 0.00 0.00 0.00 94 1018.1
20260906115517 18 135 1.6 3.2 0.00 0.00 0.00 93 1017.9
20260906114517 18 135 1.6 1.6 0.00 0.00 0.00 93 1018.1
20260906113537 18 0.0 3.2 0.00 0.00 0.00 93 1018.2
20260906112517 18 0.0 1.6 0.00 0.00 0.00 93 1018.1
20260906111517 18 0.0 3.2 0.00 0.00 0.00 93 1017.9
20260906110537 18 0.0 0.0 0.00 0.00 0.00 93 1018.0
20260906105517 18 0.0 3.2 0.00 0.00 0.00 93 1017.8
20260906104517 18 113 1.6 3.2 0.00 0.00 0.00 93 1017.8
20260906103517 18 113 1.6 3.2 0.00 0.00 0.00 93 1017.9
20260906102517 18 0.0 1.6 0.00 0.00 0.00 93 1017.8
20260906101517 18 0.0 1.6 0.00 0.00 0.00 92 1017.9
20260906100517 18 0.0 3.2 0.00 0.00 0.00 92 1017.7
20260906095517 18 0.0 3.2 0.00 0.00 0.00 93 1017.7
20260906094517 18 0.0 1.6 0.00 0.00 0.00 92 1017.4
20260906093516 18 113 1.6 1.6 0.00 0.00 0.00 92 1017.3
20260906092517 18 0.0 1.6 0.00 0.00 0.00 92 1017.2
20260906091517 18 113 1.6 3.2 0.00 0.00 0.00 92 1017.0
20260906090517 19 113 1.6 1.6 0.00 0.00 0.00 92 1017.1
20260906085517 18 135 1.6 3.2 0.00 0.00 0.00 91 1017.1
20260906084517 19 0.0 1.6 0.00 0.00 0.00 90 1017.2
20260906083516 20 0.0 3.2 0.00 0.00 0.00 91 1017.2
20260906082516 20 0.0 3.2 0.00 0.00 0.00 91 1017.0
20260906081517 20 0.0 1.6 0.00 0.00 0.00 91 1016.8
20260906080517 20 0.0 3.2 0.00 0.00 0.00 91 1016.8
20260906075516 20 0 1.6 3.2 0.00 0.00 0.00 91 1016.8
20260906074517 20 113 3.2 6.4 0.00 0.00 0.00 91 1016.7
20260906073516 21 135 4.8 14.5 0.00 0.00 0.00 91 1016.7
20260906072537 21 135 4.8 8.0 0.00 0.00 0.00 91 1016.8
20260906071517 21 135 4.8 8.0 0.00 0.00 0.00 91 1016.9
20260906070517 21 135 3.2 8.0 0.00 0.00 0.00 91 1017.0
20260906065516 20 0 3.2 6.4 0.00 0.00 0.00 91 1017.2
20260906064516 21 0 1.6 4.8 0.00 0.00 0.00 91 1017.2
20260906063516 21 0 3.2 6.4 0.00 0.00 0.00 91 1017.3
20260906062556 21 0 3.2 6.4 0.00 0.00 0.00 91 1017.3
20260906061516 21 0 3.2 4.8 0.00 0.00 0.00 91 1017.1
20260906060516 21 0 4.8 6.4 0.00 0.00 0.00 91 1017.1
20260906055516 21 0 3.2 8.0 0.00 0.00 0.00 91 1017.2
20260906054516 21 135 4.8 6.4 0.00 0.00 0.00 91 1017.3
20260906053516 21 135 4.8 9.7 0.00 0.00 0.00 91 1017.4
20260906052516 21 113 3.2 6.4 0.00 0.00 0.00 90 1017.4
20260906051516 21 113 6.4 12.9 0.00 0.00 0.00 91 1017.4
20260906050516 22 113 4.8 8.0 0.00 0.00 0.00 90 1017.3
20260906045517 22 113 4.8 8.0 0.00 0.00 0.00 91 1017.3
20260906044517 22 113 4.8 11.3 0.00 0.00 0.00 91 1017.3
20260906043517 22 113 6.4 11.3 0.00 0.00 0.00 91 1017.2
20260906042537 22 113 4.8 12.9 0.00 0.00 0.00 91 1017.3
20260906041517 22 113 4.8 9.7 0.00 0.00 0.00 91 1017.3
20260906040517 22 113 6.4 11.3 0.00 0.00 0.00 91 1017.3
20260906035517 22 113 4.8 9.7 0.00 0.00 0.00 91 1017.3
20260906034537 22 90 4.8 8.0 0.00 0.00 0.00 91 1017.3
20260906033517 22 90 4.8 8.0 0.00 0.00 0.00 91 1017.3
20260906032517 22 113 1.6 3.2 0.00 0.00 0.00 91 1017.2
20260906031517 22 113 1.6 3.2 0.00 0.00 0.00 91 1017.3
20260906030517 22 113 1.6 3.2 0.00 0.00 0.00 91 1017.4
20260906025517 22 113 1.6 3.2 0.00 0.00 0.00 90 1017.4
20260906024517 22 0 1.6 1.6 0.00 0.00 0.00 90 1017.4
20260906023537 22 0.0 0.0 0.00 0.00 0.00 90 1017.4
20260906022557 22 0.0 3.2 0.00 0.00 0.00 90 1017.3
20260906021517 22 0.0 0.0 0.00 0.00 0.00 90 1017.1
20260906020517 22 0.0 1.6 0.00 0.00 0.00 90 1016.8
20260906015517 22 90 1.6 4.8 0.00 0.00 0.00 89 1016.6
20260906014516 23 0.0 3.2 0.00 0.00 0.00 89 1016.4
20260906013536 23 0.0 3.2 0.00 0.00 0.00 89 1016.1
20260906012536 23 0.0 3.2 0.00 0.00 0.00 88 1016.0
20260906011516 23 0.0 1.6 0.00 0.00 0.00 88 1016.0
20260906010516 23 0.0 3.2 0.00 0.00 0.00 87 1015.7
20260906005516 24 180 1.6 3.2 0.00 0.00 0.00 86 1015.7
20260906004516 24 180 3.2 4.8 0.00 0.00 0.00 85 1015.7
20260906003516 25 158 1.6 3.2 0.00 0.00 0.00 84 1015.7
20260906002516 25 135 3.2 4.8 0.00 0.00 0.00 84 1015.6
20260906001517 25 135 3.2 6.4 0.00 0.00 0.00 83 1015.5
20260906000516 25 135 1.6 6.4 0.00 0.00 0.00 83 1015.6
20260905235516 25 135 3.2 6.4 0.00 0.00 0.00 82 1015.6
20260905234517 26 135 4.8 11.3 0.00 0.00 0.00 81 1015.6
20260905233516 26 135 6.4 11.3 0.00 0.00 0.00 80 1015.6
20260905232516 26 158 6.4 9.7 0.00 0.00 0.00 80 1015.5
20260905231516 27 135 8.0 14.5 0.00 0.00 0.00 79 1015.4
20260905230516 27 135 6.4 11.3 0.00 0.00 0.00 80 1015.3
20260905225556 27 135 6.4 11.3 0.00 0.00 0.00 80 1015.2
20260905224516 27 158 6.4 9.7 0.00 0.00 0.00 80 1015.2
20260905223516 26 158 4.8 9.7 0.00 0.00 0.00 80 1014.8
20260905222516 27 113 6.4 12.9 0.00 0.00 0.00 79 1014.6
20260905221516 27 90 9.7 17.7 0.00 0.00 0.00 77 1014.5
20260905220516 28 113 8.0 12.9 0.00 0.00 0.00 76 1014.6
20260905215536 28 90 9.7 14.5 0.00 0.00 0.00 76 1014.6
20260905214536 28 90 8.0 14.5 0.00 0.00 0.00 78 1014.9
20260905213516 28 113 11.3 20.9 0.00 0.00 0.00 76 1014.9
20260905212536 28 113 12.9 19.3 0.00 0.00 0.00 76 1015.0
20260905211516 27 90 12.9 20.9 0.00 0.00 0.00 77 1015.0
20260905210536 27 90 12.9 20.9 0.00 0.00 0.00 79 1014.9
20260905205516 27 113 12.9 22.5 0.00 0.00 0.00 81 1015.0
20260905204536 26 113 11.3 19.3 0.00 0.00 0.00 81 1015.2
20260905203516 26 90 11.3 17.7 0.00 0.00 0.00 82 1015.3
20260905202516 27 90 11.3 19.3 0.00 0.00 0.00 81 1015.3
20260905201516 27 90 12.9 19.3 0.00 0.00 0.00 81 1015.2
20260905200516 26 90 11.3 16.1 0.00 0.00 0.00 83 1015.3
20260905195516 26 90 11.3 17.7 0.00 0.00 0.00 84 1015.6
20260905194556 25 68 11.3 14.5 0.00 0.00 0.00 85 1015.5
20260905193516 25 90 9.7 14.5 0.00 0.00 0.00 84 1015.5
20260905192516 26 90 9.7 14.5 0.00 0.00 0.00 84 1015.5
20260905191536 25 90 11.3 16.1 0.00 0.00 0.00 84 1015.6
20260905190516 25 90 9.7 17.7 0.00 0.00 0.00 85 1015.8
20260905185536 25 113 8.0 12.9 0.00 0.00 0.00 86 1016.2
20260905184516 25 113 8.0 17.7 0.00 0.00 0.00 85 1016.2